Reflectivity
-20 -20 -20 -20 -20 -20 -20 -20 32 26 23 29 36 32 34 24 9 -2 -15 -11 -20 -20 -20 -20 -20 -20 -20 -20 -11 -11 -4 -14 -19 -20 -20 -20 15 -20 -20 -20 -20 -20 -20
-20 -20 -20 -20 -20 -20 -8 27 30 21 36 40 32 39 36 7 3 -14 -12 -3 1 -20 -20 -20 -15 -2 11 -8 -20 -20 -20 -19 -19 16 -2 -17 -20 -20 -20 -20 -20 -20 -20
-20 -20 -10 -13 -3 -20 -16 32 32 25 31 39 28 35 37 32 24 30 7 16 11 5 -20 -20 -9 8 -18 -4 3 -20 -15 14 -18 -5 0 11 -20 -20 -20 -20 -20 -20 -20
13 -20 14 -20 -20 -18 -2 25 34 34 17 33 34 33 34 31 31 35 14 9 21 5 10 7 9 -16 5 20 17 33 -0 6 -17 3 -20 28 20 -12 0 -20 -20 -20 -20
26 -19 22 -20 1 9 22 34 35 28 30 28 33 25 22 22 22 23 22 17 8 -1 -5 6 8 26 33 32 21 34 13 4 26 12 2 19 18 38 28 23 -1 -20 -9
14 21 9 31 32 24 18 14 28 32 31 37 34 19 21 7 -12 -9 -7 15 18 34 29 2 -5 26 33 32 32 22 17 14 12 13 9 -1 -20 19 23 8 -20 -20 -20
33 18 29 37 33 25 24 34 33 34 34 38 33 25 18 26 27 27 30 30 20 27 32 30 29 24 21 30 25 23 21 9 20 -8 1 15 18 16 13 -17 -17 -20 -16
5 29 36 35 31 28 34 37 34 36 36 26 25 29 28 26 21 30 28 33 28 23 26 35 30 21 23 20 -6 21 15 14 11 15 21 1 -11 -20 -12 21 24 12 5
31 36 35 29 16 21 24 26 23 23 25 19 10 27 28 24 25 33 24 22 32 29 30 31 27 28 16 2 24 19 4 16 24 29 14 -20 -20 -20 -20 -20 -20 -16 -20
35 32 30 10 3 1 9 15 13 10 -0 10 8 14 6 10 17 28 23 31 25 30 19 22 26 16 8 26 28 30 27 33 29 12 18 -2 -17 -20 -20 -20 -20 -20 -18
16 20 14 8 -14 -18 -9 2 -6 -14 -19 -1 -20 -20 -20 -12 -16 8 2 7 9 16 29 26 29 26 18 -16 -9 8 18 17 -4 5 17 -12 -13 -20 -20 -20 -20 -20 -20
-14 -5 -19 -20 -20 -20 -20 -7 -2 -20 -12 -5 -10 -10 -18 -20 -20 -20 -20 -20 -20 -18 -18 28 -17 -11 -19 -18 -17 21 4 27 -13 -2 -19 -20 -20 -20 -20 -20 -20 -20 -20
-20 -20 -20 -20 -20 -20 -20 -20 -20 -20 -20 -20 -12 3 2 -4 -13 -19 -20 -20 -20 -19 -20 -20 -18 -20 -20 -14 -20 -20 -20 -20 -20 -20 -20 -20 -20 -20 -20 -20 -20 -20 -20
-20 -20 -20 -20 -20 -20 -20 -20 -20 -20 -20 -20 -20 -20 -20 -15 -11 -9 -9 -19 -17 -13 -20 -20 -20 -20 -20 -9 21 -3 -20 24 23 -19 -20 -20 -20 -20 -20 -20 -20 -20 -20
-20 -20 -20 -20 -20 -20 -20 -20 -20 -20 -20 -20 -20 -20 -20 -20 -20 -20 -20 -18 -20 -20 -20 -20 -20 -20 -20 -20 -20 -8 23 18 19 -20 -20 -20 -20 -20 -20 -20 -20 -20 -20
-20 -20 -20 -20 -20 -20 -20 -20 -20 -20 -20 -20 -20 -20 -20 -20 -20 -20 -20 -20 -20 -20 -20 -20 -20 -20 -20 -4 -20 -20 -2 -20 12 -20 -20 -20 -20 -20 -20 -20 -20 -20 -20
-20 -20 -20 -20 -20 -20 -20 -20 -20 -20 -20 -20 -20 -20 -20 -20 -20 -20 -20 -20 -20 -20 -20 -20 -20 -20 -20 8 -10 14 -20 -15 25 -9 -20 -19 -20 -20 -20 -20 -20 -20 -20
-20 -20 -20 -20 -20 -20 -20 -20 -20 -20 -20 -20 -20 -20 -20 -20 -20 -20 -20 -20 -20 -20 -20 -20 -20 -20 -18 7 8 14 -2 13 35 33 1 -20 -20 -20 -20 -20 -20 -20 -20
-20 -20 -20 -20 -20 -20 -20 -20 -20 -20 -20 -20 -20 -20 -20 -20 -20 -20 -20 -20 -20 -20 -20 -20 -20 -20 -20 -13 16 17 -3 8 -20 -1 1 2 -5 -20 -20 -20 -20 -20 -20
-20 -20 -20 -20 -20 -20 -20 -20 -20 -20 -20 -20 -20 -20 -20 -20 -20 -20 -20 -20 -20 -20 -20 -20 -20 -20 -20 -20 -20 15 9 17 -19 -17 -20 -14 -20 -20 -20 -20 -20 -20 -20
-20 -20 -20 -20 -20 -20 -20 -20 -20 -20 -20 -20 -20 -20 -20 -20 -20 -20 -20 -20 -20 -20 -20 -20 -20 -20 -20 -20 -20 -20 7 21 -17 -20 -20 -14 -11 -20 -20 -20 -20 -20 -20
-20 -20 -20 -20 -20 -20 -20 -20 -20 -7 -0 2 -8 -20 -20 -20 -20 -20 -20 -20 -20 -10 -14 -7 -20 -20 -20 -20 -20 -20 -2 13 12 -8 -4 15 10 -20 -20 -20 -20 -20 -20
-20 -20 -20 -20 -20 -20 -20 -20 -19 4 10 9 4 0 -20 -20 -5 -20 -20 -20 -20 -18 0 14 13 -18 -20 -19 8 -20 -14 21 5 -8 12 22 27 5 -7 -20 -20 -20 -20
-20 -20 -20 -20 -20 -20 -20 -20 -20 -20 -1 0 -1 -3 9 5 -7 -12 -18 6 0 -1 6 13 16 10 -3 -6 20 -7 9 11 11 -12 13 22 18 1 -1 -20 -20 -20 -20
-20 -20 -20 -20 -20 -20 -20 -20 -20 -20 -20 -12 5 -6 10 11 -4 9 -7 13 3 13 15 4 13 12 17 -20 14 19 -17 -3 8 9 11 19 -4 11 -19 -20 -20 -20 -20
-20 -20 -20 -20 -20 -20 -20 -20 -20 -20 -20 -20 -6 7 -4 -18 4 -5 3 15 14 -1 21 28 22 4 -20 2 12 29 25 18 16 36 11 6 -6 -8 -19 -4 -20 -20 -20
Wind_Speed
3 4 3 4 3 3 6 5 5 1 2 10 9 6 9 9 8 8 10 9 8 9 9 6 6 5 7 8 6 4 5 4 3 2 2 2 2 3 4 4 5 5 5
3 0 4 2 3 2 4 5 6 6 3 3 4 5 4 3 4 5 9 11 10 10 9 8 6 7 6 6 5 4 3 3 3 3 1 2 2 1 2 3 4 5 4
6 5 3 3 4 2 7 4 5 9 7 2 3 3 5 5 5 4 3 4 8 10 9 8 6 6 5 5 5 5 6 4 3 5 3 1 4 1 1 2 4 5 4
4 5 6 5 4 1 3 4 9 8 8 6 4 3 4 3 1 3 2 4 3 5 5 6 5 4 3 4 4 4 3 3 4 2 4 2 2 2 1 1 2 4 5
10 7 7 5 7 2 4 4 9 10 9 7 6 4 8 4 4 3 4 0 3 5 6 6 7 4 3 3 5 4 4 3 3 3 4 0 1 2 2 3 2 1 2
10 8 4 10 3 3 5 10 13 9 11 8 6 5 6 5 4 3 2 3 3 3 4 4 4 5 5 5 5 5 6 5 4 3 3 4 5 3 3 2 2 3 2
9 6 5 3 2 2 7 10 5 8 8 5 5 4 4 7 5 3 0 3 3 3 3 2 4 4 6 6 5 6 6 5 5 7 5 3 5 3 3 3 3 3 2
11 11 6 4 2 2 2 4 6 6 3 1 4 5 5 5 5 6 7 6 5 5 4 6 8 8 7 7 7 6 6 7 8 9 5 5 4 4 3 4 4 2 2
11 6 4 4 6 6 4 2 1 2 3 4 2 2 3 5 4 5 6 7 8 8 11 13 13 13 11 11 11 9 10 10 9 7 7 4 3 3 3 3 3 4 4
9 8 6 9 6 6 5 7 4 4 0 1 3 4 5 5 8 10 12 11 12 13 12 14 15 14 13 12 11 9 9 10 7 6 7 5 4 4 3 3 3 2 4
8 5 7 7 7 7 8 8 8 7 7 6 4 4 1 4 5 6 8 9 8 9 9 9 9 9 10 9 10 9 10 10 8 6 8 7 5 5 5 4 3 3 3
6 8 7 7 8 8 8 7 7 7 6 6 7 7 5 4 3 4 4 4 5 5 5 6 6 7 8 9 10 11 10 9 10 9 7 6 5 6 5 4 5 5 5
9 8 9 10 9 9 9 9 9 8 7 7 7 7 6 5 5 5 4 4 5 5 5 6 7 6 7 8 9 9 9 9 10 9 9 9 8 6 5 4 4 4 3
9 8 8 8 8 6 9 9 8 7 7 7 7 6 6 7 7 6 5 5 5 6 6 7 9 10 10 10 9 8 8 7 7 9 9 9 10 9 7 6 6 5 5
9 8 9 6 5 6 7 7 6 7 6 7 8 8 7 6 6 6 7 5 5 6 6 6 8 8 9 9 12 9 8 9 7 6 7 6 6 9 9 6 5 5 4
6 5 8 11 8 8 9 8 7 6 6 7 7 8 9 9 8 7 6 6 6 7 6 8 9 9 8 12 13 12 10 9 10 9 7 6 10 9 11 11 12 9 6
0 4 4 4 7 7 7 7 6 5 7 8 9 10 10 10 10 8 8 8 7 6 7 8 8 10 10 15 18 17 9 10 6 9 9 8 6 10 8 12 11 9 9
1 2 2 2 2 4 6 7 7 6 6 5 6 7 7 9 11 11 9 9 6 8 7 9 9 9 8 14 18 19 11 11 15 11 12 11 10 8 9 8 6 5 4
8 7 7 7 6 10 10 10 9 9 8 9 10 9 10 12 12 11 11 9 9 10 9 7 11 11 11 14 16 15 9 11 12 11 13 13 12 17 17 10 8 6 4
6 7 8 7 8 8 10 12 14 17 19 19 18 16 14 12 13 13 13 11 12 12 10 11 10 15 13 16 20 17 7 8 8 10 9 18 15 23 23 11 10 8 6
6 5 5 5 6 7 9 9 11 11 13 14 18 19 20 19 17 15 12 11 11 13 13 12 12 11 13 12 23 24 11 9 8 8 8 8 20 22 23 17 10 10 10
3 4 3 5 6 7 7 8 9 11 11 13 15 16 20 17 17 21 19 13 12 14 13 11 11 9 11 18 22 26 23 16 10 10 8 9 21 20 20 16 18 17 15
5 4 4 5 6 6 5 9 11 10 10 13 14 15 16 16 17 18 19 14 12 13 10 10 10 9 8 8 21 25 26 23 12 8 13 17 19 18 16 18 19 18 8
5 4 4 5 6 5 7 9 10 11 12 13 13 14 13 15 15 13 14 12 11 11 10 10 9 9 8 9 9 12 14 19 14 13 12 14 15 14 11 12 11 7 8
4 4 4 4 5 5 5 7 8 10 12 13 13 13 12 14 13 13 13 12 15 14 11 11 9 9 10 11 15 15 12 13 15 15 9 9 10 9 8 7 6 6 7
4 4 4 5 6 6 6 8 9 10 12 13 12 12 13 12 11 12 14 21 24 29 23 24 15 11 18 19 22 25 26 25 25 11 11 10 11 11 11 10 8 7 10
Wind_Direction
251 304 339 58 192 192 202 160 164 88 3 133 153 171 172 160 155 164 165 163 168 168 169 171 179 174 181 193 187 166 191 208 171 98 295 257 244 157 151 136 138 126 115
277 327 268 144 78 96 163 143 168 167 112 60 132 160 188 166 154 149 167 174 164 171 174 180 192 183 182 175 174 160 170 187 169 166 144 234 340 67 190 141 139 135 119
221 156 181 177 153 166 95 150 196 155 160 255 85 191 175 158 144 161 174 186 173 175 182 187 171 173 156 172 169 146 151 176 84 121 132 256 219 148 246 177 156 140 119
154 144 206 213 138 140 131 203 163 179 152 129 86 148 158 138 229 162 129 149 166 187 190 177 150 160 169 171 190 196 172 175 176 116 126 122 356 242 180 20 138 142 156
153 156 216 184 61 323 243 234 174 159 119 110 124 117 108 119 74 53 72 132 140 173 160 170 166 154 197 195 165 183 148 146 206 160 156 300 89 233 128 194 204 49 178
158 188 241 60 217 300 285 182 158 156 131 130 157 127 99 85 49 45 355 23 268 221 167 127 150 172 195 173 203 187 164 188 192 184 240 178 162 190 150 130 181 188 174
152 144 83 159 166 6 2 37 37 132 119 150 144 123 118 132 178 170 79 272 241 237 205 224 178 194 202 206 186 195 192 189 205 197 188 222 162 169 169 161 192 156 153
54 44 359 318 291 81 86 334 24 16 80 195 173 142 162 177 208 208 193 200 211 227 168 210 227 225 202 197 207 210 197 205 210 196 197 183 189 164 152 172 160 177 168
55 67 52 49 58 69 95 179 238 228 249 240 227 202 191 196 207 219 231 226 210 205 203 213 217 212 213 207 204 213 206 198 196 190 176 184 170 166 175 177 182 158 181
65 55 52 52 38 53 58 50 57 94 8 149 258 227 223 242 239 240 239 235 233 236 217 211 214 207 204 208 198 210 195 191 177 168 169 175 166 166 154 166 168 145 156
77 72 65 54 50 41 43 44 46 42 29 24 45 60 264 239 223 227 221 227 230 227 225 213 214 204 206 198 197 201 185 186 160 168 182 184 160 160 155 157 152 172 152
54 53 41 42 39 42 39 36 35 46 34 17 12 6 345 332 305 291 257 224 218 203 194 203 191 197 195 193 197 196 191 175 171 176 167 178 172 175 165 164 166 169 165
56 41 38 36 32 32 27 26 20 18 20 16 9 348 335 327 317 302 276 235 221 206 201 189 198 198 200 200 205 197 178 176 177 178 176 176 170 174 166 180 171 166 155
48 46 38 39 34 26 27 14 13 19 7 356 356 339 328 320 310 300 292 256 230 215 209 209 202 194 196 197 198 194 179 192 194 178 179 178 180 176 173 175 173 179 148
31 32 25 22 21 17 15 7 357 355 348 346 348 334 325 317 294 292 285 259 266 259 236 209 216 219 199 187 178 177 188 193 183 170 171 177 176 165 169 164 180 161 145
27 8 5 9 346 355 346 347 345 341 347 350 338 328 330 326 317 310 288 274 254 251 254 242 222 206 205 199 181 171 177 185 185 174 156 142 136 141 164 168 168 168 170
94 28 11 339 356 345 337 356 306 329 346 343 330 325 331 327 319 308 303 287 260 237 236 235 236 224 216 196 190 187 174 157 194 174 158 158 154 145 144 146 145 152 167
41 58 149 40 350 328 336 331 327 326 322 320 308 317 318 317 310 312 305 297 273 251 233 234 223 229 230 210 200 188 182 188 171 193 174 164 161 161 152 141 135 145 148
359 6 355 339 335 347 349 348 343 335 337 330 328 331 323 313 312 308 301 303 302 287 255 223 227 222 221 202 207 193 194 184 195 186 186 162 163 170 163 151 154 154 157
341 333 339 358 360 345 350 348 342 339 336 334 332 329 321 310 297 285 281 284 279 273 267 254 233 223 219 196 202 195 203 192 169 188 184 173 168 172 170 161 161 158 173
313 360 360 328 305 328 336 332 308 315 320 328 319 313 312 315 310 299 286 270 268 270 266 257 248 229 222 217 195 187 191 200 190 179 178 181 184 179 176 171 166 171 152
205 220 246 274 288 287 284 305 316 309 304 297 293 301 306 308 307 304 299 287 277 266 252 246 250 239 222 212 210 194 192 193 192 194 185 182 182 183 180 172 178 165 153
233 232 248 275 271 264 311 302 302 301 293 294 295 297 294 297 296 296 291 289 280 271 258 250 238 234 223 211 211 205 197 190 194 186 180 172 177 180 186 177 178 171 155
249 231 240 250 253 244 308 303 303 309 303 299 302 301 293 296 293 297 297 273 271 270 259 249 235 220 206 205 203 207 202 198 184 169 170 176 173 177 176 177 184 150 163
256 235 249 260 279 293 289 285 307 314 317 315 312 309 304 301 295 287 288 287 288 262 262 255 236 216 211 207 204 205 199 195 184 157 151 166 167 173 177 167 155 153 163
293 315 292 297 293 309 308 308 317 328 327 316 317 314 312 303 301 297 293 284 279 282 260 252 227 219 222 208 203 209 206 197 177 164 166 173 172 178 178 171 169 166 174